Harbor Springs, MI

6:33 AM EST on December 18, 2017 (GMT -0500)
Harbor Springs

Weather History for KMGN - May, 2014

Change the Weather History Date:

Monday, May 5, 2014

  Actual Average (KPLN) Record (KPLN)
Temperature  
Mean Temperature 36 °F -  
Max Temperature 41 °F 61 °F 86 °F (1959)
Min Temperature 32 °F 36 °F 21 °F (1967)
Degree Days  
Heating Degree Days 28    
Moisture  
Dew Point 34 °F    
Average Humidity 93    
Maximum Humidity 100    
Minimum Humidity 78    
Precipitation  
Precipitation 0.00 in - - ()
Sea Level Pressure  
Sea Level Pressure 30.07 in    
Wind  
Wind Speed 2 mph (SW)    
Max Wind Speed 8 mph    
Max Gust Speed -    
Visibility 8 miles    
Events      
Averages and records for this station are not official NWS values.
T = Trace of Precipitation, MM = Missing Value Source: NWS Daily Summary

Daily Weather History Graph

Daily Weather History Graph

Search for Another Location

Airport or City:

Trip Planner

Search our weather history database for the weather conditions in past years. The results will help you decide how hot, cold, wet, or windy it might be!

Date:

Astronomy

May. 05, 2014 Rise Set
Actual Time 6:22 AM EDT 8:51 PM EDT
Civil Twilight 5:48 AM EDT 9:24 PM EDT
Nautical Twilight 5:07 AM EDT 10:06 PM EDT
Astronomical Twilight 4:20 AM EDT 10:54 PM EDT
Moon 11:42 AM EDT (5/5) 1:34 AM EDT (5/5)
Length of Visible Light 15h 35m
Length of Day
14h 29m
Waxing Crescent, 36% of the Moon is Illuminated
May 5
Waxing Crescent
May 6
First Quarter
May 14
Full
May 21
Last Quarter
May 28
New

Hourly Weather History & Observations

Time (EDT) Temp. Windchill Dew Point Humidity Pressure Visibility Wind Dir Wind Speed Gust Speed Precip Events Conditions
12:15 AM 35.6 °F 30.7 °F 34.7 °F 97% 30.09 in 10.0 mi SW 5.8 mph - N/A   Overcast
12:34 AM 35.6 °F - 34.7 °F 97% 30.09 in 10.0 mi Calm Calm - N/A   Overcast
12:55 AM 35.2 °F - 34.7 °F 98% 30.09 in 10.0 mi Calm Calm - N/A   Overcast
1:15 AM 35.1 °F - 34.7 °F 99% 30.09 in 10.0 mi Calm Calm - N/A   Overcast
1:34 AM 35.1 °F 32.2 °F 34.7 °F 99% 30.09 in 10.0 mi SW 3.5 mph - N/A   Overcast
1:55 AM 35.1 °F 32.2 °F 34.7 °F 99% 30.09 in 10.0 mi WSW 3.5 mph - N/A   Overcast
2:15 AM 34.9 °F - 34.5 °F 99% 30.09 in 10.0 mi Calm Calm - N/A   Overcast
2:35 AM 34.3 °F - 34.0 °F 99% 30.09 in 10.0 mi Calm Calm - N/A   Mostly Cloudy
2:55 AM 34.3 °F - 33.8 °F 98% 30.09 in 4.0 mi Calm Calm - N/A   Mostly Cloudy
3:14 AM 34.0 °F - 33.8 °F 99% 30.08 in 4.0 mi Calm Calm - N/A   Overcast
3:35 AM 34.5 °F - 34.2 °F 99% 30.08 in 5.0 mi Calm Calm - N/A   Overcast
3:55 AM 34.7 °F - 34.3 °F 99% 30.07 in 7.0 mi Calm Calm - N/A   Overcast
4:15 AM 34.7 °F 31.8 °F 34.5 °F 99% 30.08 in 4.0 mi SSW 3.5 mph - N/A   Overcast
4:35 AM 34.7 °F - 34.5 °F 99% 30.08 in 2.5 mi Calm Calm - N/A   Overcast
4:54 AM 34.0 °F - 34.0 °F 100% 30.07 in 2.0 mi Calm Calm - N/A   Overcast
5:15 AM 34.7 °F - 34.5 °F 99% 30.07 in 3.0 mi Calm Calm - N/A   Overcast
5:35 AM 35.2 °F - 34.2 °F 96% 30.07 in 3.0 mi Calm Calm - N/A   Overcast
5:54 AM 35.6 °F - 34.5 °F 96% 30.07 in 7.0 mi Calm Calm - N/A   Overcast
6:15 AM 34.9 °F - 34.2 °F 97% 30.08 in 5.0 mi Calm Calm - N/A   Overcast
6:35 AM 34.9 °F - 34.5 °F 99% 30.08 in 2.5 mi Calm Calm - N/A   Overcast
6:54 AM 34.7 °F - 34.3 °F 99% 30.07 in 1.2 mi Calm Calm - N/A   Overcast
7:15 AM 36.1 °F - 34.7 °F 94% 30.09 in 10.0 mi Calm Calm - N/A   Overcast
7:35 AM 36.1 °F - 34.7 °F 94% 30.09 in 10.0 mi Calm Calm - N/A   Overcast
7:54 AM 36.3 °F 33.7 °F 35.1 °F 95% 30.09 in 10.0 mi SW 3.5 mph - N/A   Overcast
8:15 AM 36.3 °F - 35.2 °F 96% 30.09 in 10.0 mi Calm Calm - N/A   Overcast
8:34 AM 38.1 °F - 35.2 °F 89% 30.09 in 10.0 mi Calm Calm - N/A   Overcast
8:55 AM 36.0 °F 32.1 °F 34.5 °F 94% 30.09 in 10.0 mi SW 4.6 mph - N/A   Overcast
9:15 AM 34.7 °F 30.6 °F 34.0 °F 97% 30.12 in 1.2 mi WSW 4.6 mph - N/A   Overcast
9:34 AM 34.5 °F 31.6 °F 33.8 °F 97% 30.12 in 1.8 mi SW 3.5 mph - N/A   Overcast
9:55 AM 35.2 °F 31.2 °F 33.8 °F 94% 30.11 in 4.0 mi WSW 4.6 mph - N/A   Overcast
10:15 AM 34.9 °F - 34.0 °F 97% 30.10 in 1.2 mi Calm Calm - N/A   Overcast
10:34 AM 36.5 °F 33.9 °F 34.2 °F 91% 30.09 in 10.0 mi SW 3.5 mph - N/A   Overcast
10:55 AM 38.3 °F - 34.7 °F 87% 30.09 in 10.0 mi Calm Calm - N/A   Overcast
11:15 AM 39.0 °F 35.7 °F 35.6 °F 88% 30.09 in 10.0 mi WSW 4.6 mph - N/A   Overcast
11:34 AM 38.1 °F 34.6 °F 34.9 °F 88% 30.09 in 10.0 mi SSW 4.6 mph - N/A   Overcast
11:55 AM 37.9 °F 33.5 °F 34.9 °F 89% 30.09 in 10.0 mi WSW 5.8 mph - N/A   Overcast
12:15 PM 38.8 °F 33.8 °F 34.7 °F 85% 30.09 in 10.0 mi SW 6.9 mph - N/A   Overcast
12:34 PM 38.7 °F 33.6 °F 34.3 °F 84% 30.09 in 10.0 mi SW 6.9 mph - N/A   Overcast
12:55 PM 38.7 °F 34.3 °F 34.5 °F 85% 30.08 in 10.0 mi SW 5.8 mph - N/A   Overcast
1:15 PM 39.0 °F 35.7 °F 34.7 °F 84% 30.08 in 10.0 mi SW 4.6 mph - N/A   Overcast
1:34 PM 40.3 °F 36.3 °F 35.2 °F 82% 30.08 in 10.0 mi SW 5.8 mph - N/A   Overcast
2:15 PM 39.9 °F 35.8 °F 35.1 °F 83% 30.07 in 10.0 mi SSW 5.8 mph - N/A   Overcast
2:34 PM 41.9 °F 38.2 °F 35.6 °F 78% 30.07 in 10.0 mi SSW 5.8 mph - N/A   Overcast
2:55 PM 41.7 °F 38.0 °F 35.4 °F 78% 30.06 in 10.0 mi SW 5.8 mph - N/A   Scattered Clouds
3:14 PM 41.4 °F 37.6 °F 35.6 °F 80% 30.05 in 10.0 mi SW 5.8 mph - N/A   Scattered Clouds
3:35 PM 40.6 °F 36.7 °F 34.9 °F 80% 30.05 in 10.0 mi SSW 5.8 mph - N/A   Scattered Clouds
3:55 PM 40.3 °F 34.9 °F 34.9 °F 81% 30.04 in 10.0 mi SW 8.1 mph - N/A   Scattered Clouds
4:14 PM 39.9 °F 35.1 °F 35.1 °F 83% 30.04 in 10.0 mi SW 6.9 mph - N/A   Clear
4:35 PM 39.2 °F 34.2 °F 35.2 °F 86% 30.04 in 10.0 mi SW 6.9 mph - N/A   Clear
4:55 PM 38.7 °F 34.3 °F 34.5 °F 85% 30.04 in 10.0 mi SW 5.8 mph - N/A   Clear
5:14 PM 38.3 °F 32.5 °F 34.7 °F 87% 30.04 in 10.0 mi SW 8.1 mph - N/A   Clear
5:35 PM 38.1 °F 32.9 °F 34.5 °F 87% 30.03 in 10.0 mi SW 6.9 mph - N/A   Clear
5:54 PM 37.8 °F 35.3 °F 34.3 °F 87% 30.03 in 10.0 mi SW 3.5 mph - N/A   Clear
6:15 PM 37.8 °F 33.3 °F 34.0 °F 86% 30.02 in 10.0 mi SW 5.8 mph - N/A   Clear
6:35 PM 36.9 °F 32.2 °F 33.8 °F 89% 30.02 in 10.0 mi SW 5.8 mph - N/A   Scattered Clouds
6:54 PM 36.5 °F 32.7 °F 33.8 °F 90% 30.02 in 10.0 mi SW 4.6 mph - N/A   Scattered Clouds
7:15 PM 36.7 °F 34.1 °F 34.0 °F 90% 30.01 in 10.0 mi WSW 3.5 mph - N/A   Clear
7:35 PM 36.5 °F 33.9 °F 33.8 °F 90% 30.01 in 10.0 mi WSW 3.5 mph - N/A   Clear
7:54 PM 35.8 °F 33.0 °F 33.8 °F 92% 30.01 in 10.0 mi SW 3.5 mph - N/A   Clear
8:15 PM 35.1 °F 31.0 °F 33.4 °F 94% 30.02 in 10.0 mi SW 4.6 mph - N/A   Clear
8:35 PM 34.5 °F - 33.3 °F 95% 30.02 in 10.0 mi Calm Calm - N/A   Clear
8:54 PM 33.8 °F - 33.1 °F 97% 30.03 in 10.0 mi Calm Calm - N/A   Clear
9:15 PM 33.4 °F - 32.9 °F 98% 30.03 in 10.0 mi Calm Calm - N/A   Clear
9:35 PM 33.4 °F - 32.9 °F 98% 30.04 in 7.0 mi Calm Calm - N/A   Scattered Clouds
9:54 PM 33.1 °F - 32.9 °F 99% 30.04 in 7.0 mi Calm Calm - N/A   Scattered Clouds
10:15 PM 33.1 °F - 32.9 °F 99% 30.05 in 5.0 mi Calm Calm - N/A   Clear
10:35 PM 32.4 °F - 32.0 °F 99% 30.05 in 5.0 mi Calm Calm - N/A   Clear
10:54 PM 32.9 °F - 32.5 °F 99% 30.06 in 4.0 mi Calm Calm - N/A   Clear
11:15 PM 32.7 °F - 32.7 °F 100% 30.06 in 7.0 mi Calm Calm - N/A   Clear
11:35 PM 32.9 °F - 32.5 °F 99% 30.06 in 7.0 mi Calm Calm - N/A   Clear
11:55 PM 32.5 °F - 32.4 °F 99% 30.07 in 10.0 mi Calm Calm - N/A   Clear